AirNav   Air Wisconsin pilot careers
 
 503 users online  

MS59 Valley of the Moon Airport
Hermanville, Mississippi, USA


FAA INFORMATION EFFECTIVE 09 NOVEMBER 2017

Location

FAA Identifier: MS59
Lat/Long: 31-59-49.2000N / 090-50-31.8000W
31-59.820000N / 090-50.530000W
31.9970000 / -90.8421667
(estimated)
Elevation: 125 ft. / 38 m (estimated)
Variation: 02E (2000)
From city: 3 miles N of HERMANVILLE, MS
Time zone: UTC -6 (UTC -5 during Daylight Saving Time)
Zip code: 39086

Airport Operations

Airport use: Private use. Permission required prior to landing
Activation date: 02/2001
Control tower: no
ARTCC: MEMPHIS CENTER
FSS: GREENWOOD FLIGHT SERVICE STATION
Attendance: UNATNDD
Wind indicator: yes
Segmented circle: no

Airport Communications

WX AWOS-3 at VKS (15 nm N): 118.85 (601-801-5376)

Nearby radio navigation aids

VOR radial/distance  VOR name  Freq  Var
HEZr043/32.6NATCHEZ VOR/DME110.0003E

 
NDB name  Hdg/Dist  Freq  Var  ID
TALLULAH146/17.634402ETKH - -.- ....
NATCHEZ-ADAMS COUNTY051/29.438800EHAH .... .- ....

Airport Services

Runway Information

Runway 18/36

Dimensions: 3000 x 100 ft. / 914 x 30 m
Surface: turf
RUNWAY 18  RUNWAY 36
Traffic pattern: rightleft

Airport Ownership and Management from official FAA records

Ownership: Privately-owned
Owner: VALLEY AVIATION INC
302 COFFEE ST.
PORT GIBSON, MS 39150-2312
Phone 601-437-8846
Manager: HANK DRAKE
302 COFFEE ST., PO BOX 186
PORT GIBSON, MS 39150-2312
Phone 601-437-8846

Airport Operational Statistics

Aircraft based on the field: 3
Single engine airplanes: 3
    

Instrument Procedures

There are no published instrument procedures at MS59.

Some nearby airports with instrument procedures:

KVKS - Vicksburg Municipal Airport (15 nm N)
KTVR - Vicksburg Tallulah Regional Airport (23 nm NW)
KJVW - John Bell Williams Airport (29 nm NE)
1R7 - Brookhaven-Lincoln County Airport (32 nm SE)
KHEZ - Hardy-Anders Field Natchez-Adams County Airport (33 nm SW)
 
Loc | Ops | Rwys | IFR | FBO | Links
Com | Nav | Svcs | Stats | Notes


 
Area around MS59 (Valley of the Moon Airport)
 
Road maps at: MapQuest Bing Google
 
Aerial photo
No photo
 
Sectional chart

 
Airport distance calculator
Flying to Valley of the Moon Airport? Find the distance to fly.

From to MS59

Sunrise and sunset
Times for 24-Nov-2017
 Local
(UTC-6)
 Zulu
(UTC)
Morning civil twilight06:1512:15
Sunrise06:4112:41
Sunset16:5922:59
Evening civil twilight17:2523:25

Current date and time
Zulu (UTC)  25-Nov-2017 05:46:26
Local (UTC-6)  24-Nov-2017 23:46:26
 
METAR
KVKS 
15nm N 
250535Z AUTO 00000KT 10SM CLR 04/02 A2999 RMK A01
KTVR 
23nm NW 
250453Z AUTO 00000KT 10SM CLR 03/02 A2999 RMK AO2 SLP161 T00330017 $
KJVW 
29nm NE 
250535Z AUTO 00000KT 8SM 03/02 A2998 RMK AO2
TAF
KHKS 
38nm NE 
241755Z 2418/2518 18004KT P6SM SKC
KJAN 
43nm NE 
241755Z 2418/2518 18004KT P6SM FEW150
NOTAMs
Click for the latest NOTAMs
NOTAMs are issued by the DoD/FAA and will open in a separate window not controlled by AirNav.

 

 
 

Would you like to see your business listed on this page?

 If your business provides an interesting product or service to pilots, flight crews, aircraft, or users of the Valley of the Moon Airport, you should consider listing it here.  To start the listing process, click on the button below
 
Add a business
 

Other Pages about Valley of the Moon Airport

Update a link
 
Copyright © AirNav, LLC. All rights reserved. Privacy Policy  Contact